Home   Weather   Valencia   Past weeks

Flag for Spain Past Weather in Valencia, Spain — Yesterday and Last 2 Weeks

Now
55 °F

Clear.


Feels Like: 55 °F
Forecast: 50 / 71 °F
Wind: 1 mph from North

Location: Valencia / Aeropuerto

Current Time: May 1, 2017 at 4:53:45 am

Latest Report: May 1, 2017 at 4:00 am


Visibility: 10 mi

Pressure: 29.98 "Hg

Humidity: 63%

Dew Point: 43 °F

Location of ValenciaLocation

Past Weather in Valencia — Graph

°F

Valencia Temperature Yesterday

Maximum temperature yesterday: 77 °F (at 4:30 pm)
Minimum temperature yesterday: 50 °F (at 7:00 am)
Average temperature yesterday: 64 °F

High & Low Weather Summary for the Past Weeks

 TemperatureHumidityPressure
High77 °F (Apr 30, 4:30 pm)100% (Apr 17, 8:00 am)30.39 "Hg (Apr 17, 8:00 am)
Low43 °F (Apr 24, 7:00 am)23% (Apr 24, 2:00 pm)29.68 "Hg (Apr 25, 5:30 pm)
Average59 °F72%30.05 "Hg
* Reported Apr 16 3:00 am — May 1 3:30 am, Valencia, Weather by CustomWeather, © 2017

Note: Actual official high and low records may vary slightly from our data, if they occured in-between our weather recording intervals... More about our weather records

Advertising

Valencia Weather History for the Previous 24 Hours

Scroll right to see more
 ConditionsComfort  
Time TempWeatherWind HumidityBarometerVisibility
3:30 am
Mon, May 1
55 °FClear.8 mph63%29.98 "Hg10 mi
3:00 am57 °FClear.6 mph59%29.98 "Hg10 mi
2:30 am59 °FClear.8 mph55%29.98 "Hg10 mi
2:00 am61 °FClear.8 mph55%29.95 "Hg10 mi
1:30 am61 °FClear.9 mph55%29.95 "Hg10 mi
1:00 am63 °FClear.12 mph52%29.95 "Hg10 mi
12:30 am63 °FClear.12 mph56%29.92 "Hg10 mi
12:00 am64 °FPassing clouds.10 mph56%29.92 "HgN/A
11:30 pm
Sun, Apr 30
64 °FPassing clouds.9 mph60%29.92 "HgN/A
11:00 pm64 °FPassing clouds.8 mph60%29.89 "HgN/A
10:30 pm64 °FPassing clouds.13 mph60%29.89 "HgN/A
10:00 pm66 °FPassing clouds.10 mph56%29.86 "HgN/A
9:30 pm70 °FPassing clouds.23 mph46%29.83 "HgN/A
9:00 pm72 °FPassing clouds.18 mph41%29.83 "HgN/A
8:30 pm72 °FScattered clouds.14 mph44%29.80 "HgN/A
8:00 pm73 °FScattered clouds.9 mph38%29.77 "HgN/A
7:30 pm73 °FScattered clouds.16 mph38%29.77 "HgN/A
7:00 pm73 °FScattered clouds.20 mph36%29.77 "HgN/A
6:30 pm75 °FScattered clouds.17 mph34%29.77 "HgN/A
6:00 pm75 °FScattered clouds.21 mph31%29.77 "HgN/A
5:30 pm75 °FScattered clouds.21 mph31%29.77 "HgN/A
5:00 pm75 °FPassing clouds.21 mph31%29.80 "HgN/A
4:30 pm77 °FPassing clouds.20 mph28%29.80 "HgN/A
4:00 pm75 °FPassing clouds.20 mph29%29.80 "HgN/A
3:30 pm75 °FPassing clouds.16 mph31%29.83 "HgN/A
3:00 pm73 °FPassing clouds.15 mph31%29.83 "HgN/A
2:30 pm73 °FPassing clouds.14 mph33%29.83 "HgN/A
2:00 pm73 °FPassing clouds.14 mph38%29.83 "HgN/A
1:30 pm70 °FPassing clouds.16 mph38%29.86 "HgN/A
1:00 pm72 °FPassing clouds.22 mph38%29.86 "HgN/A
12:30 pm70 °FPassing clouds.20 mph43%29.86 "HgN/A
12:00 pm68 °FPassing clouds.18 mph46%29.89 "HgN/A
11:30 am68 °FPassing clouds.20 mph46%29.89 "HgN/A
11:00 am68 °FPassing clouds.17 mph53%29.89 "HgN/A
10:30 am66 °FPassing clouds.18 mph56%29.89 "HgN/A
10:00 am63 °FPassing clouds.15 mph64%29.89 "HgN/A
9:30 am61 °FPassing clouds.13 mph68%29.89 "HgN/A
9:00 am59 °FPassing clouds.7 mph77%29.92 "HgN/A
8:30 am57 °FPassing clouds.8 mph82%29.92 "HgN/A
8:00 am52 °FPassing clouds.1 mph100%29.92 "HgN/A
7:30 am50 °FPassing clouds.2 mph100%29.92 "HgN/A
7:00 am50 °FPassing clouds.2 mph94%29.92 "HgN/A
6:30 am52 °FPassing clouds.2 mph88%29.92 "HgN/A
5:30 am54 °FPassing clouds.No wind88%29.92 "HgN/A
5:00 am54 °FPassing clouds.2 mph88%29.89 "HgN/A
4:30 am54 °FPassing clouds.1 mph88%29.92 "HgN/A
4:00 am54 °FPassing clouds.3 mph88%29.92 "HgN/A
Weather by CustomWeather, © 2017

See weather overviewHow to use our weather pages